User: anonymous   Login
Location: Stoke Bliss
(52.2667°N, 2.5167°W)
Time: 15:48:24
(UTC+00:00)
Language:

Cosmos 2084 Rocket - Orbit

View from above orbital plane
View from above orbital plane
View from above satellite
View from above satellite

Ground track
Ground track

The orbit data is extracted from the following two-line orbital elements,

1 20666U 90055D   21131.89320012  .00000050  00000-0  22679-4 0  9997
2 20666  62.7859  67.0513 0093643  30.7728 329.8808 14.92484154674314
Epoch (UTC): 11 May 2021 21:26:12
Eccentricity: 0.0093643
inclination: 62.7859°
perigee height: 525 km
apogee height: 655 km
right ascension of ascending node: 67.0513°
argument of perigee: 30.7728°
revolutions per day: 14.92484154
mean anomaly at epoch: 329.8808°
orbit number at epoch: 67431

The dashed part of the orbit path shows where the satellite is in the earth's shadow,  

DLR